Barnwell, SC

4:38 AM EDT on August 29, 2016 (GMT -0400)
Barnwell County

Weather History for KBNL - July, 2013

Change the Weather History Date:

Friday, July 19, 2013

  Actual Average (KOGB) Record (KOGB)
Temperature  
Mean Temperature 79 °F 82 °F  
Max Temperature 87 °F 93 °F 103 °F (1986)
Min Temperature 71 °F 72 °F 60 °F (1987)
Degree Days  
Heating Degree Days 0 0  
Month to date heating degree days 0  
Since 1 June heating degree days 1  
Since 1 July heating degree days 0  
Cooling Degree Days 14 17  
Month to date cooling degree days 316  
Year to date cooling degree days 1017  
Since 1 June cooling degree days 714  
Growing Degree Days 29 (Base 50)    
Moisture  
Dew Point 73 °F    
Average Humidity 87    
Maximum Humidity 100    
Minimum Humidity 58    
Precipitation  
Precipitation 0.29 in 0.17 in 4.60 in (1984)
Month to date precipitation 3.43  
Year to date precipitation 26.17  
Sea Level Pressure  
Sea Level Pressure 30.10 in    
Wind  
Wind Speed 0 mph (East)    
Max Wind Speed 15 mph    
Max Gust Speed 18 mph    
Visibility 10 miles    
Events Rain , Thunderstorm    
T = Trace of Precipitation, MM = Missing Value Source: NWS Daily Summary

Daily Weather History Graph

Daily Weather History Graph

Search for Another Location

Airport or City:

Trip Planner

Search our weather history database for the weather conditions in past years. The results will help you decide how hot, cold, wet, or windy it might be!

Date:

Astronomy

Jul. 19, 2013 Rise Set
Actual Time 6:29 AM EDT 8:33 PM EDT
Civil Twilight 6:01 AM EDT 9:01 PM EDT
Nautical Twilight 5:27 AM EDT 9:35 PM EDT
Astronomical Twilight 4:51 AM EDT 10:11 PM EDT
Moon 5:34 PM EDT (7/19) 3:08 AM EDT (7/19)
Length of Visible Light 14h 59m
Length of Day
14h 03m
Waxing Gibbous, 86% of the Moon is Illuminated
Jul 19
Waxing Gibbous
Jul 22
Full
Jul 29
Last Quarter
Aug 6
New
Aug 14
First Quarter

Hourly Weather History & Observations

Time (EDT) Temp. Heat Index Dew Point Humidity Pressure Visibility Wind Dir Wind Speed Gust Speed Precip Events Conditions
12:15 AM 77.0 °F - 73.4 °F 89% 30.14 in 10.0 mi Calm Calm - N/A   Clear
12:35 AM 77.0 °F - 73.4 °F 89% 30.14 in 10.0 mi Calm Calm - N/A   Clear
12:55 AM 77.0 °F - 73.4 °F 89% 30.14 in 10.0 mi Calm Calm - N/A   Clear
1:15 AM 75.2 °F - 73.4 °F 94% 30.14 in 10.0 mi Calm Calm - N/A   Clear
1:35 AM 75.2 °F - 73.4 °F 94% 30.14 in 10.0 mi Calm Calm - N/A   Clear
1:55 AM 75.2 °F - 73.4 °F 94% 30.13 in 10.0 mi Calm Calm - N/A   Clear
2:15 AM 75.2 °F - 73.4 °F 94% 30.13 in 10.0 mi Calm Calm - N/A   Clear
2:35 AM 75.2 °F - 73.4 °F 94% 30.12 in 10.0 mi Calm Calm - N/A   Clear
2:55 AM 73.4 °F - 73.4 °F 100% 30.12 in 10.0 mi Calm Calm - N/A   Clear
3:15 AM 73.4 °F - 71.6 °F 94% 30.11 in 10.0 mi Calm Calm - N/A   Clear
3:35 AM 73.4 °F - 71.6 °F 94% 30.12 in 10.0 mi Calm Calm - N/A   Clear
3:55 AM 73.4 °F - 71.6 °F 94% 30.12 in 10.0 mi Calm Calm - N/A   Clear
4:15 AM 71.6 °F - 71.6 °F 100% 30.11 in 10.0 mi Calm Calm - N/A   Clear
4:35 AM 73.4 °F - 71.6 °F 94% 30.11 in 10.0 mi Calm Calm - N/A   Clear
4:55 AM 71.6 °F - 71.6 °F 100% 30.11 in 10.0 mi Calm Calm - N/A   Clear
5:15 AM 71.6 °F - 71.6 °F 100% 30.11 in 10.0 mi Calm Calm - N/A   Clear
5:35 AM 71.6 °F - 71.6 °F 100% 30.11 in 10.0 mi Calm Calm - N/A   Clear
5:55 AM 71.6 °F - 71.6 °F 100% 30.12 in 10.0 mi Calm Calm - N/A   Partly Cloudy
6:15 AM 71.6 °F - 71.6 °F 100% 30.12 in 10.0 mi Calm Calm - N/A   Clear
6:35 AM 71.6 °F - 69.8 °F 94% 30.12 in 10.0 mi Calm Calm - N/A   Clear
6:55 AM 71.6 °F - 69.8 °F 94% 30.12 in 10.0 mi Calm Calm - N/A   Clear
7:15 AM 71.6 °F - 71.6 °F 100% 30.12 in 10.0 mi Calm Calm - N/A   Clear
7:35 AM 73.4 °F - 71.6 °F 94% 30.13 in 10.0 mi Calm Calm - N/A   Clear
7:55 AM 75.2 °F - 73.4 °F 94% 30.13 in 10.0 mi Calm Calm - N/A   Clear
8:15 AM 78.8 °F - 73.4 °F 83% 30.14 in 10.0 mi Calm Calm - N/A   Clear
8:35 AM 78.8 °F - 73.4 °F 83% 30.14 in 10.0 mi Calm Calm - N/A   Clear
8:55 AM 78.8 °F - 73.4 °F 83% 30.14 in 10.0 mi Calm Calm - N/A   Clear
9:15 AM 80.6 °F 85.4 °F 73.4 °F 79% 30.14 in 10.0 mi Calm Calm - N/A   Clear
9:35 AM 80.6 °F 85.4 °F 73.4 °F 79% 30.14 in 10.0 mi Calm Calm - N/A   Clear
9:55 AM 82.4 °F 88.2 °F 73.4 °F 74% 30.14 in 10.0 mi Calm Calm - N/A   Scattered Clouds
10:15 AM 84.2 °F 90.9 °F 73.4 °F 70% 30.14 in 10.0 mi Calm Calm - N/A   Mostly Cloudy
10:35 AM 82.4 °F 87.2 °F 71.6 °F 70% 30.14 in 10.0 mi Calm Calm - N/A   Mostly Cloudy
10:55 AM 82.4 °F 87.2 °F 71.6 °F 70% 30.14 in 10.0 mi Calm Calm - N/A   Mostly Cloudy
11:15 AM 84.2 °F 89.6 °F 71.6 °F 66% 30.14 in 10.0 mi Calm Calm - N/A   Scattered Clouds
11:35 AM 84.2 °F 89.6 °F 71.6 °F 66% 30.14 in 10.0 mi Calm Calm - N/A   Scattered Clouds
11:55 AM 86.0 °F 91.8 °F 71.6 °F 62% 30.13 in 10.0 mi Calm Calm - N/A   Mostly Cloudy
12:15 PM 84.2 °F 89.6 °F 71.6 °F 66% 30.13 in 10.0 mi Calm Calm - N/A   Mostly Cloudy
12:35 PM 86.0 °F 91.8 °F 71.6 °F 62% 30.12 in 10.0 mi Calm Calm - N/A   Scattered Clouds
12:55 PM 87.8 °F 93.8 °F 71.6 °F 58% 30.11 in 10.0 mi North 4.6 mph - N/A   Scattered Clouds
1:15 PM 87.8 °F 93.8 °F 71.6 °F 58% 30.10 in 10.0 mi ENE 6.9 mph - N/A   Partly Cloudy
1:35 PM 87.8 °F 93.8 °F 71.6 °F 58% 30.09 in 10.0 mi NE 5.8 mph - N/A   Partly Cloudy
1:55 PM 87.8 °F 93.8 °F 71.6 °F 58% 30.08 in 10.0 mi Calm Calm - N/A Thunderstorm Mostly Cloudy
2:15 PM 87.8 °F 95.6 °F 73.4 °F 62% 30.09 in 10.0 mi SSE 15.0 mph - N/A Thunderstorm Mostly Cloudy
2:35 PM 78.8 °F - 75.2 °F 89% 30.09 in 2.0 mi SE 12.7 mph 18.4 mph 0.03 in   Light Drizzle
2:55 PM 77.0 °F - 75.2 °F 94% 30.10 in 1.5 mi SE 8.1 mph - 0.29 in Rain , Thunderstorm Heavy Thunderstorms and Rain
3:15 PM 78.8 °F - 75.2 °F 89% 30.10 in 7.0 mi Calm Calm - N/A   Light Drizzle
3:35 PM 77.0 °F - 75.2 °F 94% 30.10 in 10.0 mi Calm Calm - N/A Thunderstorm Overcast
3:55 PM 77.0 °F - 75.2 °F 94% 30.08 in 10.0 mi Calm Calm - N/A   Scattered Clouds
4:15 PM 75.2 °F - 73.4 °F 94% 30.08 in 10.0 mi Calm Calm - N/A   Clear
4:35 PM 77.0 °F - 75.2 °F 94% 30.07 in 10.0 mi Calm Calm - N/A   Scattered Clouds
4:55 PM 77.0 °F - 73.4 °F 89% 30.06 in 10.0 mi Calm Calm - N/A   Partly Cloudy
5:15 PM 78.8 °F - 75.2 °F 89% 30.06 in 10.0 mi Calm Calm - N/A   Clear
5:35 PM 78.8 °F - 75.2 °F 89% 30.06 in 10.0 mi Calm Calm - N/A   Partly Cloudy
5:55 PM 78.8 °F - 75.2 °F 89% 30.04 in 10.0 mi Calm Calm - N/A   Clear
6:15 PM 78.8 °F - 75.2 °F 89% 30.02 in 10.0 mi Calm Calm - N/A   Clear
6:35 PM 78.8 °F - 75.2 °F 89% 30.02 in 9.0 mi Calm Calm - N/A   Partly Cloudy
6:55 PM 78.8 °F - 75.2 °F 89% 30.03 in 10.0 mi Calm Calm - N/A   Scattered Clouds
7:15 PM 78.8 °F - 75.2 °F 89% 30.03 in 10.0 mi Calm Calm - N/A   Partly Cloudy
7:35 PM 78.8 °F - 75.2 °F 89% 30.03 in 10.0 mi Calm Calm - N/A   Partly Cloudy
7:55 PM 80.6 °F 86.2 °F 75.2 °F 84% 30.03 in 10.0 mi Calm Calm - N/A   Clear
8:15 PM 78.8 °F - 75.2 °F 89% 30.03 in 10.0 mi Calm Calm - N/A   Clear
8:35 PM 78.8 °F - 75.2 °F 89% 30.03 in 10.0 mi Calm Calm - N/A   Clear
8:55 PM 78.8 °F - 75.2 °F 89% 30.04 in 10.0 mi Calm Calm - N/A   Clear
9:15 PM 78.8 °F - 75.2 °F 89% 30.04 in 10.0 mi Calm Calm - N/A   Clear
9:35 PM 77.0 °F - 75.2 °F 94% 30.05 in 10.0 mi Calm Calm - N/A   Clear
9:55 PM 77.0 °F - 75.2 °F 94% 30.06 in 10.0 mi Calm Calm - N/A   Clear
10:15 PM 75.2 °F - 75.2 °F 100% 30.07 in 10.0 mi Calm Calm - N/A   Partly Cloudy
10:35 PM 75.2 °F - 75.2 °F 100% 30.06 in 10.0 mi Calm Calm - N/A   Partly Cloudy
10:55 PM 75.2 °F - 73.4 °F 94% 30.07 in 10.0 mi Calm Calm - N/A   Clear
11:15 PM 75.2 °F - 73.4 °F 94% 30.08 in 10.0 mi Calm Calm - N/A   Clear
11:35 PM 75.2 °F - 73.4 °F 94% 30.09 in 10.0 mi Calm Calm - N/A   Clear
11:55 PM 75.2 °F - 73.4 °F 94% 30.09 in 10.0 mi Calm Calm - N/A   Clear